TimeMST,TemperatureF,Dew PointF,Humidity,Sea Level PressureIn,VisibilityMPH,Wind Direction,Wind SpeedMPH,Gust SpeedMPH,PrecipitationIn,Events,Conditions,WindDirDegrees,DateUTC
12:56 AM,21.0,15.1,78,29.71,10.0,West,15.0,-,N/A,,Clear,280,2014-01-11 07:56:00
1:56 AM,18.0,12.0,78,29.74,10.0,West,10.4,-,N/A,,Clear,280,2014-01-11 08:56:00
2:56 AM,19.9,14.0,78,29.75,10.0,West,13.8,-,N/A,,Clear,270,2014-01-11 09:56:00
3:56 AM,21.0,15.1,78,29.77,10.0,West,16.1,-,N/A,,Clear,270,2014-01-11 10:56:00
4:56 AM,21.0,15.1,78,29.77,10.0,West,19.6,-,N/A,,Clear,270,2014-01-11 11:56:00
5:56 AM,19.0,14.0,81,29.78,10.0,West,16.1,-,N/A,,Clear,280,2014-01-11 12:56:00
6:56 AM,18.0,12.9,81,29.77,10.0,West,11.5,-,N/A,,Clear,280,2014-01-11 13:56:00
7:56 AM,19.0,14.0,81,29.76,10.0,West,12.7,-,N/A,,Clear,280,2014-01-11 14:56:00
8:56 AM,21.0,15.1,78,29.75,10.0,West,12.7,-,N/A,,Clear,270,2014-01-11 15:56:00
9:56 AM,24.1,17.1,75,29.73,10.0,WSW,8.1,-,N/A,,Clear,250,2014-01-11 16:56:00
10:56 AM,28.0,19.9,72,29.70,10.0,SSW,13.8,-,N/A,,Clear,200,2014-01-11 17:56:00
11:56 AM,30.0,21.9,72,29.61,10.0,South,11.5,-,N/A,,Clear,190,2014-01-11 18:56:00
12:56 PM,33.1,24.1,70,29.56,10.0,SSW,16.1,-,N/A,,Clear,210,2014-01-11 19:56:00
1:56 PM,34.0,25.0,70,29.52,10.0,SSW,15.0,-,N/A,,Clear,200,2014-01-11 20:56:00
2:56 PM,33.1,25.0,72,29.46,10.0,South,17.3,-,N/A,,Clear,180,2014-01-11 21:56:00
3:56 PM,33.1,25.0,72,29.42,10.0,South,15.0,-,N/A,,Scattered Clouds,180,2014-01-11 22:56:00
4:56 PM,36.0,27.0,70,29.38,10.0,South,19.6,-,N/A,,Overcast,180,2014-01-11 23:56:00
5:56 PM,36.0,28.0,73,29.34,10.0,South,19.6,-,N/A,,Partly Cloudy,180,2014-01-12 00:56:00
6:56 PM,37.0,28.9,73,29.31,10.0,SSW,19.6,-,N/A,,Scattered Clouds,200,2014-01-12 01:56:00
7:56 PM,37.0,30.0,76,29.30,10.0,SSW,8.1,-,N/A,,Mostly Cloudy,200,2014-01-12 02:56:00
8:56 PM,39.0,30.0,70,29.29,10.0,SW,20.7,-,N/A,,Overcast,220,2014-01-12 03:56:00
9:56 PM,39.0,30.0,70,29.33,10.0,WNW,20.7,-,0.00,,Scattered Clouds,290,2014-01-12 04:56:00
10:56 PM,37.9,30.9,76,29.32,10.0,West,19.6,-,0.00,,Clear,270,2014-01-12 05:56:00
11:56 PM,37.9,30.9,76,29.28,10.0,West,16.1,-,N/A,,Clear,270,2014-01-12 06:56:00